Weather in Yaan

China     29°59′44″N   103°00′22″E
temp.,
°C
wind,
m/s
gust,
m/s
humid.,
%
clouds,
%
prec.,
mm/h
press.,
hPa
HPBL,
m
18 may, wed
wed1823:00+12wsw1196100 0.4 101737
02:00+12wsw1195100 0.6 101523
05:00+12wnw0195100 0.2 101426
08:00+12nw0093100 0.3 101539
11:00+13ene1192100 0.0 1015147
14:00+13s0092100 0.1 1014177
17:00+14w018898 0.0 1014227
20:00+13w1195100 0.9 101621
19 may, thu
thu1923:00+12wsw1197100 2.8 101832
02:00+12wsw119581 3.1 101613
05:00+12w119493 0.0 101511
08:00+14wsw0189100 0.0 101664
11:00+17se1177100 0.0 1016527
14:00+17s1181100 0.0 1014320
17:00+17ese1181100 0.0 1012322
20:00+15sw009085 0.0 101411
20 may, fri
fri2023:00+14wsw119099 0.0 101615
02:00+14wsw229088 0.0 101421
05:00+14w1186100 0.0 101311
08:00+16w1184100 0.0 101454
11:00+20e116577 0.0 1013647
14:00+23e325664 0.0 10101269
17:00+23e225820 0.0 10081330
20:00+18ese117911 0.0 100911
21 may, sat
sat2123:00+16w118716 0.0 101211
02:00+15w119091 0.0 101111
05:00+15wsw119068 0.0 101114
08:00+18w128093 0.0 1011155
11:00+24e115977 0.0 1010903
14:00+26e224847 0.0 10071613
17:00+25e335296 0.0 10051576
20:00+21ne0172100 0.2 100712
22 may, sun
sun2223:00+18wsw2282100 0.0 100918
02:00+17wsw118576 0.0 100715
05:00+16w118896 0.0 100612
08:00+18wsw127864 0.0 1007124
11:00+25ene115719 0.0 1006932
14:00+27e22497 0.0 10031735
17:00+26e3251100 0.0 10021786
20:00+22ssw0171100 0.1 100415